owner,sensor,date,latitude,longitude,vertical_datum,sea_water_practical_salinity,qcFlag 
TCOON,ioos:station:TCOON:171:1,2011-12-01T00:00:00Z,27.4847,-97.3181,0.0,48.7,1111122 
TCOON,ioos:station:TCOON:171:1,2011-12-01T00:30:00Z,27.4847,-97.3181,0.0,48.5,1111122 
TCOON,ioos:station:TCOON:171:1,2011-12-01T01:00:00Z,27.4847,-97.3181,0.0,48.1,1111122 
TCOON,ioos:station:TCOON:171:1,2011-12-01T01:30:00Z,27.4847,-97.3181,0.0,48.0,1111122 
TCOON,ioos:station:TCOON:171:1,2011-12-01T02:00:00Z,27.4847,-97.3181,0.0,48.2,1111122 
TCOON,ioos:station:TCOON:171:1,2011-12-01T02:30:00Z,27.4847,-97.3181,0.0,48.3,1111122 
TCOON,ioos:station:TCOON:171:1,2011-12-01T03:00:00Z,27.4847,-97.3181,0.0,48.4,1111122 
TCOON,ioos:station:TCOON:171:1,2011-12-01T03:30:00Z,27.4847,-97.3181,0.0,48.5,1111122 
TCOON,ioos:station:TCOON:171:1,2011-12-01T04:00:00Z,27.4847,-97.3181,0.0,48.4,1111122 
TCOON,ioos:station:TCOON:171:1,2011-12-01T04:30:00Z,27.4847,-97.3181,0.0,48.2,1111122 
TCOON,ioos:station:TCOON:171:1,2011-12-01T05:00:00Z,27.4847,-97.3181,0.0,47.9,1111122 
TCOON,ioos:station:TCOON:171:1,2011-12-01T05:30:00Z,27.4847,-97.3181,0.0,47.8,1111122 
TCOON,ioos:station:TCOON:171:1,2011-12-01T06:00:00Z,27.4847,-97.3181,0.0,47.9,1111122 
TCOON,ioos:station:TCOON:171:1,2011-12-01T06:30:00Z,27.4847,-97.3181,0.0,47.5,1111122 
TCOON,ioos:station:TCOON:171:1,2011-12-01T07:00:00Z,27.4847,-97.3181,0.0,47.6,1111122 
TCOON,ioos:station:TCOON:171:1,2011-12-01T07:30:00Z,27.4847,-97.3181,0.0,47.6,1111122 
TCOON,ioos:station:TCOON:171:1,2011-12-01T08:00:00Z,27.4847,-97.3181,0.0,47.7,1111122 
TCOON,ioos:station:TCOON:171:1,2011-12-01T09:00:00Z,27.4847,-97.3181,0.0,47.9,1111122 
TCOON,ioos:station:TCOON:171:1,2011-12-01T09:30:00Z,27.4847,-97.3181,0.0,48.0,1111122 
TCOON,ioos:station:TCOON:171:1,2011-12-01T10:00:00Z,27.4847,-97.3181,0.0,48.3,1111122 
TCOON,ioos:station:TCOON:171:1,2011-12-01T10:30:00Z,27.4847,-97.3181,0.0,49.2,1111122 
TCOON,ioos:station:TCOON:171:1,2011-12-01T11:00:00Z,27.4847,-97.3181,0.0,48.8,1111122 
TCOON,ioos:station:TCOON:171:1,2011-12-01T11:30:00Z,27.4847,-97.3181,0.0,49.2,1111122 
TCOON,ioos:station:TCOON:171:1,2011-12-01T12:00:00Z,27.4847,-97.3181,0.0,49.4,1111122 
TCOON,ioos:station:TCOON:171:1,2011-12-01T13:00:00Z,27.4847,-97.3181,0.0,49.7,1111122 
TCOON,ioos:station:TCOON:171:1,2011-12-01T13:30:00Z,27.4847,-97.3181,0.0,49.6,1111122 
TCOON,ioos:station:TCOON:171:1,2011-12-01T14:00:00Z,27.4847,-97.3181,0.0,49.0,1111122 
TCOON,ioos:station:TCOON:171:1,2011-12-01T14:30:00Z,27.4847,-97.3181,0.0,49.5,1111122 
TCOON,ioos:station:TCOON:171:1,2011-12-01T15:00:00Z,27.4847,-97.3181,0.0,49.5,1111122 
TCOON,ioos:station:TCOON:171:1,2011-12-01T15:30:00Z,27.4847,-97.3181,0.0,49.6,1111122 
TCOON,ioos:station:TCOON:171:1,2011-12-01T16:00:00Z,27.4847,-97.3181,0.0,49.6,1111122 
TCOON,ioos:station:TCOON:171:1,2011-12-01T17:00:00Z,27.4847,-97.3181,0.0,49.7,1111122 
TCOON,ioos:station:TCOON:171:1,2011-12-01T18:00:00Z,27.4847,-97.3181,0.0,49.7,1111122 
TCOON,ioos:station:TCOON:171:1,2011-12-01T18:30:00Z,27.4847,-97.3181,0.0,49.8,1111122 
TCOON,ioos:station:TCOON:171:1,2011-12-01T19:00:00Z,27.4847,-97.3181,0.0,50.1,1111122 
TCOON,ioos:station:TCOON:171:1,2011-12-01T19:30:00Z,27.4847,-97.3181,0.0,50.2,1111122 
TCOON,ioos:station:TCOON:171:1,2011-12-01T20:00:00Z,27.4847,-97.3181,0.0,50.2,1111122 
TCOON,ioos:station:TCOON:171:1,2011-12-01T20:30:00Z,27.4847,-97.3181,0.0,50.4,1111122 
TCOON,ioos:station:TCOON:171:1,2011-12-01T21:00:00Z,27.4847,-97.3181,0.0,50.4,1111122 
TCOON,ioos:station:TCOON:171:1,2011-12-01T21:30:00Z,27.4847,-97.3181,0.0,50.6,1111122 
TCOON,ioos:station:TCOON:171:1,2011-12-01T22:00:00Z,27.4847,-97.3181,0.0,50.7,1111122 
TCOON,ioos:station:TCOON:171:1,2011-12-01T22:30:00Z,27.4847,-97.3181,0.0,50.6,1111122 
TCOON,ioos:station:TCOON:171:1,2011-12-01T23:00:00Z,27.4847,-97.3181,0.0,50.7,1111122 
TCOON,ioos:station:TCOON:171:1,2011-12-01T23:30:00Z,27.4847,-97.3181,0.0,50.7,1111122 
TCOON,ioos:station:TCOON:171:1,2011-12-02T00:00:00Z,27.4847,-97.3181,0.0,50.7,1111122 
TCOON,ioos:station:TCOON:171:1,2011-12-02T01:00:00Z,27.4847,-97.3181,0.0,50.8,1111122 
TCOON,ioos:station:TCOON:171:1,2011-12-02T01:30:00Z,27.4847,-97.3181,0.0,50.9,1111122 
TCOON,ioos:station:TCOON:171:1,2011-12-02T02:00:00Z,27.4847,-97.3181,0.0,50.9,1111122 
TCOON,ioos:station:TCOON:171:1,2011-12-02T02:30:00Z,27.4847,-97.3181,0.0,51.0,1111122 
TCOON,ioos:station:TCOON:171:1,2011-12-02T03:30:00Z,27.4847,-97.3181,0.0,51.1,1111122 
TCOON,ioos:station:TCOON:171:1,2011-12-02T04:00:00Z,27.4847,-97.3181,0.0,51.1,1111122 
TCOON,ioos:station:TCOON:171:1,2011-12-02T04:30:00Z,27.4847,-97.3181,0.0,51.6,1111122 
TCOON,ioos:station:TCOON:171:1,2011-12-02T05:00:00Z,27.4847,-97.3181,0.0,51.4,1111122 
TCOON,ioos:station:TCOON:171:1,2011-12-02T05:30:00Z,27.4847,-97.3181,0.0,51.3,1111122 
TCOON,ioos:station:TCOON:171:1,2011-12-02T06:00:00Z,27.4847,-97.3181,0.0,51.4,1111122 
TCOON,ioos:station:TCOON:171:1,2011-12-02T06:30:00Z,27.4847,-97.3181,0.0,51.1,1111122 
TCOON,ioos:station:TCOON:171:1,2011-12-02T07:00:00Z,27.4847,-97.3181,0.0,51.1,1111122 
TCOON,ioos:station:TCOON:171:1,2011-12-02T07:30:00Z,27.4847,-97.3181,0.0,51.1,1111122 
TCOON,ioos:station:TCOON:171:1,2011-12-02T08:00:00Z,27.4847,-97.3181,0.0,51.0,1111122 
TCOON,ioos:station:TCOON:171:1,2011-12-02T08:30:00Z,27.4847,-97.3181,0.0,51.0,1111122 
TCOON,ioos:station:TCOON:171:1,2011-12-02T09:00:00Z,27.4847,-97.3181,0.0,50.9,1111122 
TCOON,ioos:station:TCOON:171:1,2011-12-02T09:30:00Z,27.4847,-97.3181,0.0,50.7,1111122 
TCOON,ioos:station:TCOON:171:1,2011-12-02T10:00:00Z,27.4847,-97.3181,0.0,50.7,1111122 
TCOON,ioos:station:TCOON:171:1,2011-12-02T10:30:00Z,27.4847,-97.3181,0.0,50.8,1111122 
TCOON,ioos:station:TCOON:171:1,2011-12-02T11:00:00Z,27.4847,-97.3181,0.0,50.8,1111122 
TCOON,ioos:station:TCOON:171:1,2011-12-02T11:30:00Z,27.4847,-97.3181,0.0,50.6,1111122 
TCOON,ioos:station:TCOON:171:1,2011-12-02T12:00:00Z,27.4847,-97.3181,0.0,50.6,1111122 
TCOON,ioos:station:TCOON:171:1,2011-12-02T12:30:00Z,27.4847,-97.3181,0.0,50.5,1111122 
TCOON,ioos:station:TCOON:171:1,2011-12-02T13:00:00Z,27.4847,-97.3181,0.0,51.0,1111122 
TCOON,ioos:station:TCOON:171:1,2011-12-02T13:30:00Z,27.4847,-97.3181,0.0,51.1,1111122 
TCOON,ioos:station:TCOON:171:1,2011-12-02T14:00:00Z,27.4847,-97.3181,0.0,51.2,1111122 
TCOON,ioos:station:TCOON:171:1,2011-12-02T14:30:00Z,27.4847,-97.3181,0.0,50.9,1111122 
TCOON,ioos:station:TCOON:171:1,2011-12-02T15:00:00Z,27.4847,-97.3181,0.0,51.0,1111122 
TCOON,ioos:station:TCOON:171:1,2011-12-02T15:30:00Z,27.4847,-97.3181,0.0,50.9,1111122 
TCOON,ioos:station:TCOON:171:1,2011-12-02T16:00:00Z,27.4847,-97.3181,0.0,50.9,1111122 
TCOON,ioos:station:TCOON:171:1,2011-12-02T16:30:00Z,27.4847,-97.3181,0.0,51.0,1111122 
TCOON,ioos:station:TCOON:171:1,2011-12-02T17:00:00Z,27.4847,-97.3181,0.0,51.2,1111122 
TCOON,ioos:station:TCOON:171:1,2011-12-02T17:30:00Z,27.4847,-97.3181,0.0,51.2,1111122 
TCOON,ioos:station:TCOON:171:1,2011-12-02T18:00:00Z,27.4847,-97.3181,0.0,51.3,1111122 
TCOON,ioos:station:TCOON:171:1,2011-12-02T18:30:00Z,27.4847,-97.3181,0.0,51.2,1111122 
TCOON,ioos:station:TCOON:171:1,2011-12-02T19:00:00Z,27.4847,-97.3181,0.0,51.4,1111122 
TCOON,ioos:station:TCOON:171:1,2011-12-02T19:30:00Z,27.4847,-97.3181,0.0,51.1,1111122 
TCOON,ioos:station:TCOON:171:1,2011-12-02T20:00:00Z,27.4847,-97.3181,0.0,51.1,1111122 
TCOON,ioos:station:TCOON:171:1,2011-12-02T20:30:00Z,27.4847,-97.3181,0.0,51.2,1111122 
TCOON,ioos:station:TCOON:171:1,2011-12-02T21:00:00Z,27.4847,-97.3181,0.0,51.3,1111122 
TCOON,ioos:station:TCOON:171:1,2011-12-02T21:30:00Z,27.4847,-97.3181,0.0,51.4,1111122 
TCOON,ioos:station:TCOON:171:1,2011-12-02T22:00:00Z,27.4847,-97.3181,0.0,51.4,1111122 
TCOON,ioos:station:TCOON:171:1,2011-12-02T22:30:00Z,27.4847,-97.3181,0.0,51.4,1111122 
TCOON,ioos:station:TCOON:171:1,2011-12-02T23:00:00Z,27.4847,-97.3181,0.0,51.4,1111122 
TCOON,ioos:station:TCOON:171:1,2011-12-02T23:30:00Z,27.4847,-97.3181,0.0,51.5,1111122 
TCOON,ioos:station:TCOON:171:1,2011-12-03T00:00:00Z,27.4847,-97.3181,0.0,51.5,1111122 
TCOON,ioos:station:TCOON:171:1,2011-12-03T00:30:00Z,27.4847,-97.3181,0.0,51.5,1111122 
TCOON,ioos:station:TCOON:171:1,2011-12-03T01:00:00Z,27.4847,-97.3181,0.0,51.5,1111122 
TCOON,ioos:station:TCOON:171:1,2011-12-03T01:30:00Z,27.4847,-97.3181,0.0,51.5,1111122 
TCOON,ioos:station:TCOON:171:1,2011-12-03T02:00:00Z,27.4847,-97.3181,0.0,51.5,1111122 
TCOON,ioos:station:TCOON:171:1,2011-12-03T02:30:00Z,27.4847,-97.3181,0.0,51.5,1111122 
TCOON,ioos:station:TCOON:171:1,2011-12-03T03:00:00Z,27.4847,-97.3181,0.0,51.5,1111122 
TCOON,ioos:station:TCOON:171:1,2011-12-03T03:30:00Z,27.4847,-97.3181,0.0,51.4,1111122 
TCOON,ioos:station:TCOON:171:1,2011-12-03T04:00:00Z,27.4847,-97.3181,0.0,51.4,1111122 
TCOON,ioos:station:TCOON:171:1,2011-12-03T04:30:00Z,27.4847,-97.3181,0.0,51.4,1111122 
TCOON,ioos:station:TCOON:171:1,2011-12-03T05:00:00Z,27.4847,-97.3181,0.0,51.4,1111122 
TCOON,ioos:station:TCOON:171:1,2011-12-03T05:30:00Z,27.4847,-97.3181,0.0,51.4,1111122 
TCOON,ioos:station:TCOON:171:1,2011-12-03T06:00:00Z,27.4847,-97.3181,0.0,51.4,1111122 
TCOON,ioos:station:TCOON:171:1,2011-12-03T06:30:00Z,27.4847,-97.3181,0.0,51.4,1111122 
TCOON,ioos:station:TCOON:171:1,2011-12-03T07:00:00Z,27.4847,-97.3181,0.0,51.5,1111122 
TCOON,ioos:station:TCOON:171:1,2011-12-03T07:30:00Z,27.4847,-97.3181,0.0,51.4,1111122 
TCOON,ioos:station:TCOON:171:1,2011-12-03T08:00:00Z,27.4847,-97.3181,0.0,51.4,1111122 
TCOON,ioos:station:TCOON:171:1,2011-12-03T08:30:00Z,27.4847,-97.3181,0.0,51.4,1111122 
TCOON,ioos:station:TCOON:171:1,2011-12-03T09:00:00Z,27.4847,-97.3181,0.0,51.4,1111122 
TCOON,ioos:station:TCOON:171:1,2011-12-03T09:30:00Z,27.4847,-97.3181,0.0,51.5,1111122 
TCOON,ioos:station:TCOON:171:1,2011-12-03T10:00:00Z,27.4847,-97.3181,0.0,51.5,1111122 
TCOON,ioos:station:TCOON:171:1,2011-12-03T10:30:00Z,27.4847,-97.3181,0.0,51.5,1111122 
TCOON,ioos:station:TCOON:171:1,2011-12-03T11:00:00Z,27.4847,-97.3181,0.0,51.5,1111122 
TCOON,ioos:station:TCOON:171:1,2011-12-03T11:30:00Z,27.4847,-97.3181,0.0,51.5,1111122 
TCOON,ioos:station:TCOON:171:1,2011-12-03T12:00:00Z,27.4847,-97.3181,0.0,51.5,1111122 
TCOON,ioos:station:TCOON:171:1,2011-12-03T12:30:00Z,27.4847,-97.3181,0.0,51.6,1111122 
TCOON,ioos:station:TCOON:171:1,2011-12-03T13:00:00Z,27.4847,-97.3181,0.0,51.7,1111122 
TCOON,ioos:station:TCOON:171:1,2011-12-03T13:30:00Z,27.4847,-97.3181,0.0,51.9,1111122 
TCOON,ioos:station:TCOON:171:1,2011-12-03T14:00:00Z,27.4847,-97.3181,0.0,52.0,1111122 
TCOON,ioos:station:TCOON:171:1,2011-12-03T14:30:00Z,27.4847,-97.3181,0.0,52.1,1111122 
TCOON,ioos:station:TCOON:171:1,2011-12-03T15:00:00Z,27.4847,-97.3181,0.0,52.1,1111122 
TCOON,ioos:station:TCOON:171:1,2011-12-03T15:30:00Z,27.4847,-97.3181,0.0,52.1,1111122 
TCOON,ioos:station:TCOON:171:1,2011-12-03T16:00:00Z,27.4847,-97.3181,0.0,52.1,1111122 
TCOON,ioos:station:TCOON:171:1,2011-12-03T16:30:00Z,27.4847,-97.3181,0.0,52.1,1111122 
TCOON,ioos:station:TCOON:171:1,2011-12-03T17:00:00Z,27.4847,-97.3181,0.0,52.1,1111122 
TCOON,ioos:station:TCOON:171:1,2011-12-03T17:30:00Z,27.4847,-97.3181,0.0,52.0,1111122 
TCOON,ioos:station:TCOON:171:1,2011-12-03T18:00:00Z,27.4847,-97.3181,0.0,52.0,1111122 
TCOON,ioos:station:TCOON:171:1,2011-12-03T18:30:00Z,27.4847,-97.3181,0.0,52.0,1111122 
TCOON,ioos:station:TCOON:171:1,2011-12-03T19:00:00Z,27.4847,-97.3181,0.0,52.1,1111122 
TCOON,ioos:station:TCOON:171:1,2011-12-03T19:30:00Z,27.4847,-97.3181,0.0,52.2,1111122 
TCOON,ioos:station:TCOON:171:1,2011-12-03T20:30:00Z,27.4847,-97.3181,0.0,52.2,1111122 
TCOON,ioos:station:TCOON:171:1,2011-12-03T21:00:00Z,27.4847,-97.3181,0.0,52.1,1111122 
TCOON,ioos:station:TCOON:171:1,2011-12-03T21:30:00Z,27.4847,-97.3181,0.0,52.1,1111122 
TCOON,ioos:station:TCOON:171:1,2011-12-03T22:00:00Z,27.4847,-97.3181,0.0,52.1,1111122 
TCOON,ioos:station:TCOON:171:1,2011-12-03T23:00:00Z,27.4847,-97.3181,0.0,52.0,1111122 
TCOON,ioos:station:TCOON:171:1,2011-12-03T23:30:00Z,27.4847,-97.3181,0.0,52.0,1111122 
TCOON,ioos:station:TCOON:171:1,2011-12-04T00:00:00Z,27.4847,-97.3181,0.0,52.0,1111122 
TCOON,ioos:station:TCOON:171:1,2011-12-04T00:30:00Z,27.4847,-97.3181,0.0,52.0,1111122 
TCOON,ioos:station:TCOON:171:1,2011-12-04T01:00:00Z,27.4847,-97.3181,0.0,52.0,1111122 
TCOON,ioos:station:TCOON:171:1,2011-12-04T01:30:00Z,27.4847,-97.3181,0.0,52.0,1111122 
TCOON,ioos:station:TCOON:171:1,2011-12-04T02:00:00Z,27.4847,-97.3181,0.0,51.9,1111122 
TCOON,ioos:station:TCOON:171:1,2011-12-04T02:30:00Z,27.4847,-97.3181,0.0,51.9,1111122 
TCOON,ioos:station:TCOON:171:1,2011-12-04T03:00:00Z,27.4847,-97.3181,0.0,51.9,1111122 
TCOON,ioos:station:TCOON:171:1,2011-12-04T03:30:00Z,27.4847,-97.3181,0.0,51.9,1111122 
TCOON,ioos:station:TCOON:171:1,2011-12-04T04:00:00Z,27.4847,-97.3181,0.0,51.9,1111122 
TCOON,ioos:station:TCOON:171:1,2011-12-04T04:30:00Z,27.4847,-97.3181,0.0,52.0,1111122 
TCOON,ioos:station:TCOON:171:1,2011-12-04T05:00:00Z,27.4847,-97.3181,0.0,52.0,1111122 
TCOON,ioos:station:TCOON:171:1,2011-12-04T05:30:00Z,27.4847,-97.3181,0.0,52.0,1111122 
TCOON,ioos:station:TCOON:171:1,2011-12-04T06:00:00Z,27.4847,-97.3181,0.0,52.0,1111122 
TCOON,ioos:station:TCOON:171:1,2011-12-04T06:30:00Z,27.4847,-97.3181,0.0,52.0,1111122 
TCOON,ioos:station:TCOON:171:1,2011-12-04T07:00:00Z,27.4847,-97.3181,0.0,52.1,1111122 
TCOON,ioos:station:TCOON:171:1,2011-12-04T07:30:00Z,27.4847,-97.3181,0.0,52.1,1111122 
TCOON,ioos:station:TCOON:171:1,2011-12-04T08:00:00Z,27.4847,-97.3181,0.0,51.8,1111122 
TCOON,ioos:station:TCOON:171:1,2011-12-04T08:30:00Z,27.4847,-97.3181,0.0,52.0,1111122 
TCOON,ioos:station:TCOON:171:1,2011-12-04T09:00:00Z,27.4847,-97.3181,0.0,51.9,1111122 
TCOON,ioos:station:TCOON:171:1,2011-12-04T09:30:00Z,27.4847,-97.3181,0.0,52.0,1111122 
TCOON,ioos:station:TCOON:171:1,2011-12-04T10:00:00Z,27.4847,-97.3181,0.0,51.3,1111122 
TCOON,ioos:station:TCOON:171:1,2011-12-04T10:30:00Z,27.4847,-97.3181,0.0,51.2,1111122 
TCOON,ioos:station:TCOON:171:1,2011-12-04T11:30:00Z,27.4847,-97.3181,0.0,51.3,1111122 
TCOON,ioos:station:TCOON:171:1,2011-12-04T12:00:00Z,27.4847,-97.3181,0.0,52.1,1111122 
TCOON,ioos:station:TCOON:171:1,2011-12-04T12:30:00Z,27.4847,-97.3181,0.0,51.8,1111122 
TCOON,ioos:station:TCOON:171:1,2011-12-04T13:00:00Z,27.4847,-97.3181,0.0,52.0,1111122 
TCOON,ioos:station:TCOON:171:1,2011-12-04T13:30:00Z,27.4847,-97.3181,0.0,52.0,1111122 
TCOON,ioos:station:TCOON:171:1,2011-12-04T14:00:00Z,27.4847,-97.3181,0.0,51.6,1111122 
TCOON,ioos:station:TCOON:171:1,2011-12-04T14:30:00Z,27.4847,-97.3181,0.0,51.5,1111122 
TCOON,ioos:station:TCOON:171:1,2011-12-04T15:00:00Z,27.4847,-97.3181,0.0,51.7,1111122 
TCOON,ioos:station:TCOON:171:1,2011-12-04T15:30:00Z,27.4847,-97.3181,0.0,51.7,1111122 
TCOON,ioos:station:TCOON:171:1,2011-12-04T16:00:00Z,27.4847,-97.3181,0.0,52.0,1111122 
TCOON,ioos:station:TCOON:171:1,2011-12-04T16:30:00Z,27.4847,-97.3181,0.0,51.7,1111122 
TCOON,ioos:station:TCOON:171:1,2011-12-04T17:30:00Z,27.4847,-97.3181,0.0,51.5,1111122 
TCOON,ioos:station:TCOON:171:1,2011-12-04T18:30:00Z,27.4847,-97.3181,0.0,51.6,1111122 
TCOON,ioos:station:TCOON:171:1,2011-12-04T19:00:00Z,27.4847,-97.3181,0.0,51.6,1111122 
TCOON,ioos:station:TCOON:171:1,2011-12-04T19:30:00Z,27.4847,-97.3181,0.0,51.6,1111122 
TCOON,ioos:station:TCOON:171:1,2011-12-04T20:00:00Z,27.4847,-97.3181,0.0,52.1,1111122 
TCOON,ioos:station:TCOON:171:1,2011-12-04T20:30:00Z,27.4847,-97.3181,0.0,52.2,1111122 
TCOON,ioos:station:TCOON:171:1,2011-12-04T21:00:00Z,27.4847,-97.3181,0.0,52.2,1111122 
TCOON,ioos:station:TCOON:171:1,2011-12-04T21:30:00Z,27.4847,-97.3181,0.0,52.0,1111122 
TCOON,ioos:station:TCOON:171:1,2011-12-04T22:00:00Z,27.4847,-97.3181,0.0,52.3,1111122 
TCOON,ioos:station:TCOON:171:1,2011-12-04T23:00:00Z,27.4847,-97.3181,0.0,52.3,1111122 
TCOON,ioos:station:TCOON:171:1,2011-12-04T23:30:00Z,27.4847,-97.3181,0.0,52.2,1111122 
TCOON,ioos:station:TCOON:171:1,2011-12-05T00:00:00Z,27.4847,-97.3181,0.0,52.3,1111122 
TCOON,ioos:station:TCOON:171:1,2011-12-05T00:30:00Z,27.4847,-97.3181,0.0,52.3,1111122 
TCOON,ioos:station:TCOON:171:1,2011-12-05T01:00:00Z,27.4847,-97.3181,0.0,52.0,1111122 
TCOON,ioos:station:TCOON:171:1,2011-12-05T01:30:00Z,27.4847,-97.3181,0.0,52.2,1111122 
TCOON,ioos:station:TCOON:171:1,2011-12-05T02:00:00Z,27.4847,-97.3181,0.0,51.7,1111122 
TCOON,ioos:station:TCOON:171:1,2011-12-05T02:30:00Z,27.4847,-97.3181,0.0,51.7,1111122 
TCOON,ioos:station:TCOON:171:1,2011-12-05T03:00:00Z,27.4847,-97.3181,0.0,51.6,1111122 
TCOON,ioos:station:TCOON:171:1,2011-12-05T03:30:00Z,27.4847,-97.3181,0.0,51.6,1111122 
TCOON,ioos:station:TCOON:171:1,2011-12-05T04:00:00Z,27.4847,-97.3181,0.0,51.8,1111122 
TCOON,ioos:station:TCOON:171:1,2011-12-05T04:30:00Z,27.4847,-97.3181,0.0,51.8,1111122 
TCOON,ioos:station:TCOON:171:1,2011-12-05T05:00:00Z,27.4847,-97.3181,0.0,51.6,1111122 
TCOON,ioos:station:TCOON:171:1,2011-12-05T05:30:00Z,27.4847,-97.3181,0.0,51.6,1111122 
TCOON,ioos:station:TCOON:171:1,2011-12-05T06:30:00Z,27.4847,-97.3181,0.0,51.5,1111122 
TCOON,ioos:station:TCOON:171:1,2011-12-05T07:00:00Z,27.4847,-97.3181,0.0,51.6,1111122 
TCOON,ioos:station:TCOON:171:1,2011-12-05T07:30:00Z,27.4847,-97.3181,0.0,51.6,1111122 
TCOON,ioos:station:TCOON:171:1,2011-12-05T08:00:00Z,27.4847,-97.3181,0.0,51.4,1111122 
TCOON,ioos:station:TCOON:171:1,2011-12-05T08:30:00Z,27.4847,-97.3181,0.0,51.4,1111122 
TCOON,ioos:station:TCOON:171:1,2011-12-05T09:00:00Z,27.4847,-97.3181,0.0,50.2,1111122 
TCOON,ioos:station:TCOON:171:1,2011-12-05T09:30:00Z,27.4847,-97.3181,0.0,49.8,1111122 
TCOON,ioos:station:TCOON:171:1,2011-12-05T10:00:00Z,27.4847,-97.3181,0.0,50.2,1111122 
TCOON,ioos:station:TCOON:171:1,2011-12-05T10:30:00Z,27.4847,-97.3181,0.0,49.4,1111122 
TCOON,ioos:station:TCOON:171:1,2011-12-05T11:00:00Z,27.4847,-97.3181,0.0,49.0,1111122 
TCOON,ioos:station:TCOON:171:1,2011-12-05T11:30:00Z,27.4847,-97.3181,0.0,48.7,1111122 
TCOON,ioos:station:TCOON:171:1,2011-12-05T12:00:00Z,27.4847,-97.3181,0.0,48.4,1111122 
TCOON,ioos:station:TCOON:171:1,2011-12-05T12:30:00Z,27.4847,-97.3181,0.0,48.5,1111122 
TCOON,ioos:station:TCOON:171:1,2011-12-05T13:00:00Z,27.4847,-97.3181,0.0,48.0,1111122 
TCOON,ioos:station:TCOON:171:1,2011-12-05T13:30:00Z,27.4847,-97.3181,0.0,47.8,1111122 
TCOON,ioos:station:TCOON:171:1,2011-12-05T14:00:00Z,27.4847,-97.3181,0.0,47.8,1111122 
TCOON,ioos:station:TCOON:171:1,2011-12-05T14:30:00Z,27.4847,-97.3181,0.0,48.8,1111122 
TCOON,ioos:station:TCOON:171:1,2011-12-05T15:00:00Z,27.4847,-97.3181,0.0,47.6,1111122 
TCOON,ioos:station:TCOON:171:1,2011-12-05T15:30:00Z,27.4847,-97.3181,0.0,48.6,1111122 
TCOON,ioos:station:TCOON:171:1,2011-12-05T16:00:00Z,27.4847,-97.3181,0.0,46.0,1111122 
TCOON,ioos:station:TCOON:171:1,2011-12-05T16:30:00Z,27.4847,-97.3181,0.0,45.7,1111122 
TCOON,ioos:station:TCOON:171:1,2011-12-05T17:00:00Z,27.4847,-97.3181,0.0,45.4,1111122 
TCOON,ioos:station:TCOON:171:1,2011-12-05T18:00:00Z,27.4847,-97.3181,0.0,45.7,1111122 
TCOON,ioos:station:TCOON:171:1,2011-12-05T18:30:00Z,27.4847,-97.3181,0.0,44.8,1111122 
TCOON,ioos:station:TCOON:171:1,2011-12-05T19:00:00Z,27.4847,-97.3181,0.0,44.7,1111122 
TCOON,ioos:station:TCOON:171:1,2011-12-05T19:30:00Z,27.4847,-97.3181,0.0,44.9,1111122 
TCOON,ioos:station:TCOON:171:1,2011-12-05T20:00:00Z,27.4847,-97.3181,0.0,43.9,1111122 
TCOON,ioos:station:TCOON:171:1,2011-12-05T20:30:00Z,27.4847,-97.3181,0.0,44.5,1111122 
TCOON,ioos:station:TCOON:171:1,2011-12-05T21:00:00Z,27.4847,-97.3181,0.0,44.1,1111122 
TCOON,ioos:station:TCOON:171:1,2011-12-05T21:30:00Z,27.4847,-97.3181,0.0,43.4,1111122 
TCOON,ioos:station:TCOON:171:1,2011-12-05T22:00:00Z,27.4847,-97.3181,0.0,43.3,1111122 
TCOON,ioos:station:TCOON:171:1,2011-12-05T22:30:00Z,27.4847,-97.3181,0.0,44.0,1111122 
TCOON,ioos:station:TCOON:171:1,2011-12-05T23:00:00Z,27.4847,-97.3181,0.0,44.3,1111122 
TCOON,ioos:station:TCOON:171:1,2011-12-05T23:30:00Z,27.4847,-97.3181,0.0,44.2,1111122 
TCOON,ioos:station:TCOON:171:1,2011-12-06T00:00:00Z,27.4847,-97.3181,0.0,43.8,1111122 
TCOON,ioos:station:TCOON:171:1,2011-12-06T00:30:00Z,27.4847,-97.3181,0.0,44.2,1111122 
TCOON,ioos:station:TCOON:171:1,2011-12-06T01:00:00Z,27.4847,-97.3181,0.0,43.2,1111122 
TCOON,ioos:station:TCOON:171:1,2011-12-06T01:30:00Z,27.4847,-97.3181,0.0,43.1,1111122 
TCOON,ioos:station:TCOON:171:1,2011-12-06T02:00:00Z,27.4847,-97.3181,0.0,43.6,1111122 
TCOON,ioos:station:TCOON:171:1,2011-12-06T02:30:00Z,27.4847,-97.3181,0.0,43.0,1111122 
TCOON,ioos:station:TCOON:171:1,2011-12-06T03:00:00Z,27.4847,-97.3181,0.0,43.3,1111122 
TCOON,ioos:station:TCOON:171:1,2011-12-06T03:30:00Z,27.4847,-97.3181,0.0,43.3,1111122 
TCOON,ioos:station:TCOON:171:1,2011-12-06T04:00:00Z,27.4847,-97.3181,0.0,42.8,1111122 
TCOON,ioos:station:TCOON:171:1,2011-12-06T04:30:00Z,27.4847,-97.3181,0.0,42.6,1111122 
TCOON,ioos:station:TCOON:171:1,2011-12-06T05:00:00Z,27.4847,-97.3181,0.0,43.0,1111122 
TCOON,ioos:station:TCOON:171:1,2011-12-06T05:30:00Z,27.4847,-97.3181,0.0,43.1,1111122 
TCOON,ioos:station:TCOON:171:1,2011-12-06T06:00:00Z,27.4847,-97.3181,0.0,42.1,1111122 
TCOON,ioos:station:TCOON:171:1,2011-12-06T06:30:00Z,27.4847,-97.3181,0.0,41.9,1111122 
TCOON,ioos:station:TCOON:171:1,2011-12-06T07:00:00Z,27.4847,-97.3181,0.0,42.1,1111122 
TCOON,ioos:station:TCOON:171:1,2011-12-06T07:30:00Z,27.4847,-97.3181,0.0,41.8,1111122 
TCOON,ioos:station:TCOON:171:1,2011-12-06T08:00:00Z,27.4847,-97.3181,0.0,41.3,1111122 
TCOON,ioos:station:TCOON:171:1,2011-12-06T08:30:00Z,27.4847,-97.3181,0.0,41.2,1111122 
TCOON,ioos:station:TCOON:171:1,2011-12-06T09:00:00Z,27.4847,-97.3181,0.0,41.1,1111122 
TCOON,ioos:station:TCOON:171:1,2011-12-06T09:30:00Z,27.4847,-97.3181,0.0,41.0,1111122 
TCOON,ioos:station:TCOON:171:1,2011-12-06T10:00:00Z,27.4847,-97.3181,0.0,41.0,1111122 
TCOON,ioos:station:TCOON:171:1,2011-12-06T10:30:00Z,27.4847,-97.3181,0.0,40.8,1111122 
TCOON,ioos:station:TCOON:171:1,2011-12-06T11:00:00Z,27.4847,-97.3181,0.0,40.6,1111122 
TCOON,ioos:station:TCOON:171:1,2011-12-06T11:30:00Z,27.4847,-97.3181,0.0,40.3,1111122 
TCOON,ioos:station:TCOON:171:1,2011-12-06T12:00:00Z,27.4847,-97.3181,0.0,40.3,1111122 
TCOON,ioos:station:TCOON:171:1,2011-12-06T12:30:00Z,27.4847,-97.3181,0.0,40.4,1111122 
TCOON,ioos:station:TCOON:171:1,2011-12-06T13:00:00Z,27.4847,-97.3181,0.0,40.6,1111122 
TCOON,ioos:station:TCOON:171:1,2011-12-06T13:30:00Z,27.4847,-97.3181,0.0,40.3,1111122 
TCOON,ioos:station:TCOON:171:1,2011-12-06T14:00:00Z,27.4847,-97.3181,0.0,40.2,1111122 
TCOON,ioos:station:TCOON:171:1,2011-12-06T14:30:00Z,27.4847,-97.3181,0.0,40.2,1111122 
TCOON,ioos:station:TCOON:171:1,2011-12-06T15:00:00Z,27.4847,-97.3181,0.0,40.2,1111122 
TCOON,ioos:station:TCOON:171:1,2011-12-06T15:30:00Z,27.4847,-97.3181,0.0,40.4,1111122 
TCOON,ioos:station:TCOON:171:1,2011-12-06T16:00:00Z,27.4847,-97.3181,0.0,40.4,1111122 
TCOON,ioos:station:TCOON:171:1,2011-12-06T16:30:00Z,27.4847,-97.3181,0.0,40.5,1111122 
TCOON,ioos:station:TCOON:171:1,2011-12-06T17:00:00Z,27.4847,-97.3181,0.0,40.4,1111122 
TCOON,ioos:station:TCOON:171:1,2011-12-06T17:30:00Z,27.4847,-97.3181,0.0,40.3,1111122 
TCOON,ioos:station:TCOON:171:1,2011-12-06T18:00:00Z,27.4847,-97.3181,0.0,40.2,1111122 
TCOON,ioos:station:TCOON:171:1,2011-12-06T18:30:00Z,27.4847,-97.3181,0.0,40.0,1111122 
TCOON,ioos:station:TCOON:171:1,2011-12-06T19:00:00Z,27.4847,-97.3181,0.0,40.1,1111122 
TCOON,ioos:station:TCOON:171:1,2011-12-06T19:30:00Z,27.4847,-97.3181,0.0,40.1,1111122 
TCOON,ioos:station:TCOON:171:1,2011-12-06T20:00:00Z,27.4847,-97.3181,0.0,40.0,1111122 
TCOON,ioos:station:TCOON:171:1,2011-12-06T20:30:00Z,27.4847,-97.3181,0.0,39.9,1111122 
TCOON,ioos:station:TCOON:171:1,2011-12-06T21:30:00Z,27.4847,-97.3181,0.0,40.1,1111122 
TCOON,ioos:station:TCOON:171:1,2011-12-06T22:00:00Z,27.4847,-97.3181,0.0,40.2,1111122 
TCOON,ioos:station:TCOON:171:1,2011-12-06T22:30:00Z,27.4847,-97.3181,0.0,40.1,1111122 
TCOON,ioos:station:TCOON:171:1,2011-12-06T23:00:00Z,27.4847,-97.3181,0.0,40.1,1111122 
TCOON,ioos:station:TCOON:171:1,2011-12-06T23:30:00Z,27.4847,-97.3181,0.0,40.0,1111122 
TCOON,ioos:station:TCOON:171:1,2011-12-07T00:00:00Z,27.4847,-97.3181,0.0,40.0,1111122 